Location: Duac?
(36.9744°N, 30.6500°E)
Time: 13:17:23
(UTC+00:00)

Cosmos 2322 Rocket - Pass Details

Date: 05 August 2024
Orbit: 830 x 851 km, 71.0° (Epoch: 11 September)

Event Time Altitude Azimuth Distance (km) Brightness Sun altitude
Exits shadow 22:35:46 26° 57° (ENE) 1,598 3.9 -35.9°
Drops below altitude 10° 22:38:33 10° 38° (NE) 2,474 5.2 -35.8°
Sets 22:41:09 0° 31° (NNE) 3,416 6.2 -35.7°
